パンスターズ彗星

P/2019 X2 ( PanSTARRS )

English version
Home page
Updated on May 17, 2020

---------------------------------------------------------------------

・ プロフィール

発見日 2019年12月4日、31日
発見光度 21.6等、20.5等
発見者 Pan-STARRS 2 telescope (Haleakala)

・ 写真集

・ 軌道要素

Epoch 2019 Dec. 23.0 TT = JDT 2458840.5
T 2019 Dec.  9.30903 TT                                 Bell
q   1.8241082            (2000.0)            P               Q
n   0.14176209     Peri.  213.55753     -0.22898999     -0.93847461
a   3.6427496      Node   250.85622     +0.94242414     -0.14724384
e   0.4992496      Incl.   15.88134     +0.24372181     -0.31238542
P   6.95
From 49 observations 2019 Nov. 25-2020 Jan. 9, mean residual 0".5.

・ 光度変化

        m1 = 17.5 + 5 logΔ + 10.0 log r

---------------------------------------------------------------------

軌道要素はM.P.E.C. 2020-C98に掲載されたものです。
光度グラフはComet for Windowsで作成したものです。

---------------------------------------------------------------------

Copyright(C) Seiichi Yoshida (comet@aerith.net). All rights reserved.